2024-169A

Last updated on Fri Oct 04 2024 00:02:04 GMT+0000 (Coordinated Universal Time)

1 61189U 24169A 24277.55113333 .00017264 00000+0 11123-2 0 9992 2 61189 97.5980 2.8146 0009157 229.7506 130.2922 15.08363684 2015
UTC large
Height (km)
Speed (km/s)
/
Latitude / Longitude
Inclination (degrees)
Orbital Period (minutes)
Azimuth
Elevation
Range (km)
Doppler Factor

Next 0 passes for location: London (51.5072 / 0.1276)

Sorry there are no passes over London.